Location: Veytaux
(46.4185°N, 6.9320°E)
Time: 20:51:24
(UTC+00:00)

Cosmos 2366 rocket - Pass Details

Date: 27 May 2022
Orbit: 955 x 997 km, 82.9° (Epoch: 04 July)

Event Time Altitude Azimuth Distance (km) Brightness Sun altitude
Rises 03:03:04 0° 348° (NNW) 3,646 7.4 -6.9°
Reaches altitude 10° 03:05:36 10° 345° (NNW) 2,698 6.7 -6.6°
Maximum altitude 03:11:38 61° 267° (W) 1,087 4.1 -5.8°
Drops below altitude 10° 03:17:42 10° 189° (S) 2,699 5.9 -4.9°
Sets 03:20:14 0° 186° (S) 3,648 6.6 -4.6°
